Weather History for Del Bajio, Mexico

Change the Weather History Date:

Wednesday, March 26, 2014

  Actual Average Record
Temperature  
Mean Temperature 68 °F -  
Max Temperature 86 °F 82 °F 93 °F (2012)
Min Temperature 51 °F 49 °F 44 °F (2013)
Cooling Degree Days 4    
Growing Degree Days 18 (Base 50)    
Moisture  
Dew Point 42 °F    
Average Humidity 44    
Maximum Humidity 82    
Minimum Humidity 15    
Precipitation  
Precipitation 0.00 in - - ()
Sea Level Pressure  
Sea Level Pressure 30.06 in    
Wind  
Wind Speed 5 mph ()    
Max Wind Speed 23 mph    
Max Gust Speed -    
Visibility 8.5 miles    
Events      
Averages and records for this station are not official NWS values.
T = Trace of Precipitation, MM = Missing Value Source: Averaged Metar Reports

Daily Weather History Graph

Daily Weather History Graph

Search for Another Location

Airport:

Trip Planner

Search our weather history database for the weather conditions in past years. The results will help you decide how hot, cold, wet, or windy it might be!

Date:

Astronomy

Mar. 26, 2014 Rise Set
Actual Time 6:44 AM CST 6:58 PM CST
Civil Twilight 6:22 AM CST 7:21 PM CST
Nautical Twilight 5:56 AM CST 7:46 PM CST
Astronomical Twilight 5:30 AM CST 8:12 PM CST
Moon 3:23 AM CST (3/26) 3:08 PM CST (3/26)
Length of Visible Light 12h 58m
Length of Day
12h 14m
Waning Crescent, 21% of the Moon is Illuminated
Mar 26
Waning Crescent
Mar 30
New
Apr 7
First Quarter
Apr 15
Full
Apr 22
Last Quarter

Hourly Weather History & Observations

Time (CST) Temp. Dew Point Humidity Pressure Visibility Wind Dir Wind Speed Gust Speed Precip Events Conditions
12:48 AM 59.0 °F 46.4 °F 63% 30.22 in 8.0 mi Calm Calm - N/A   Scattered Clouds
1:48 AM 57.2 °F 48.2 °F 72% 30.22 in 8.0 mi Calm Calm - N/A   Scattered Clouds
2:50 AM 55.4 °F 48.2 °F 77% 29.75 in 8.0 mi Calm Calm - N/A   Clear
4:51 AM 53.6 °F 48.2 °F 82% 30.18 in 8.0 mi Calm Calm - N/A   Clear
5:51 AM 53.6 °F 48.2 °F 82% 29.80 in 7.0 mi Calm Calm - N/A   Clear
6:50 AM 51.8 °F 46.4 °F 82% 30.23 in 7.0 mi Calm Calm - N/A   Clear
7:51 AM 57.2 °F 48.2 °F 72% 30.26 in 6.0 mi Calm Calm - N/A   Clear
8:40 AM 62.6 °F 50.0 °F 63% 29.89 in 7.0 mi SE 5.8 mph - N/A   Clear
9:40 AM 69.8 °F 48.2 °F 46% 30.29 in 8.0 mi SE 6.9 mph - N/A   Partly Cloudy
10:41 AM 73.4 °F 46.4 °F 38% 30.27 in 9.0 mi WSW 4.6 mph - N/A   Partly Cloudy
11:40 AM 77.0 °F 44.6 °F 32% 29.86 in 10.0 mi West 10.4 mph - N/A   Scattered Clouds
12:50 PM 80.6 °F 42.8 °F 26% 30.21 in 10.0 mi NW 10.4 mph - N/A   Scattered Clouds
1:44 PM 80.6 °F 41.0 °F 24% 30.18 in 10.0 mi SW 8.1 mph - N/A   Mostly Cloudy
2:44 PM 84.2 °F 37.4 °F 19% 29.72 in 10.0 mi WSW 15.0 mph - N/A   Mostly Cloudy
3:41 PM 86.0 °F 33.8 °F 15% 30.12 in 10.0 mi WSW 23.0 mph - N/A   Mostly Cloudy
4:48 PM 84.2 °F 35.6 °F 18% 30.12 in 10.0 mi SW 17.3 mph - N/A   Mostly Cloudy
5:44 PM 80.6 °F 33.8 °F 18% 29.72 in 10.0 mi WSW 11.5 mph - N/A   Mostly Cloudy
6:42 PM 78.8 °F 33.8 °F 20% 30.12 in 10.0 mi WSW 15.0 mph - N/A   Mostly Cloudy
7:48 PM 71.6 °F 35.6 °F 27% 30.15 in 8.0 mi SW 6.9 mph - N/A   Mostly Cloudy
8:42 PM 69.8 °F 35.6 °F 28% 29.79 in 8.0 mi WSW 9.2 mph - N/A   Mostly Cloudy
9:45 PM 69.8 °F 37.4 °F 31% 30.21 in 8.0 mi WSW 11.5 mph - N/A   Scattered Clouds
10:47 PM 66.2 °F 37.4 °F 35% 30.24 in 8.0 mi West 6.9 mph - N/A   Scattered Clouds
11:47 PM 64.4 °F 39.2 °F 40% 29.83 in 8.0 mi West 8.1 mph - N/A   Clear